EW7082 Weather Reports


Display with metric or nautical units.
time (UTC)temp
F
wind
direction
speed
MPH
gust
MPH
rain 1hr
in
rain 24hr
in
rain mn
in
humidity
%
barometer
mb
20260509055205 47 194 0.0 0.0 0.00 0.00 0.00 89 1023.2
20260509054704 47 194 0.0 0.0 0.00 0.00 0.00 88 1023.2
20260509054206 47 194 0.0 0.0 0.00 0.00 0.00 87 1023.1
20260509053204 48 194 0.0 0.0 0.00 0.00 0.00 87 1023.1
20260509052704 48 194 0.0 0.0 0.00 0.00 0.00 86 1023.0
20260509051705 48 209 1.0 3.0 0.00 0.00 0.00 84 1023.1
20260509051204 50 202 2.0 3.0 0.00 0.00 0.00 83 1023.1
20260509050705 51 232 1.0 2.0 0.00 0.00 0.00 82 1023.1
20260509050203 52 257 1.0 2.0 0.00 0.00 0.00 82 1023.1
20260509045705 52 257 0.0 0.0 0.00 0.00 0.00 81 1023.1
20260509045204 52 257 1.0 1.0 0.00 0.00 0.00 81 1023.1
20260509044705 53 257 0.0 1.0 0.00 0.00 0.00 81 1023.1
20260509044204 53 257 1.0 2.0 0.00 0.00 0.00 81 1023.0
20260509043705 53 257 1.0 2.0 0.00 0.00 0.00 81 1023.0
20260509043204 53 257 2.0 3.0 0.00 0.00 0.00 81 1023.0
20260509042204 54 253 2.0 3.0 0.00 0.00 0.00 80 1022.9
20260509041704 54 259 2.0 3.0 0.00 0.00 0.00 79 1022.9
20260509041205 54 271 1.0 3.0 0.00 0.00 0.00 80 1022.8
20260509040704 54 224 2.0 3.0 0.00 0.00 0.00 79 1022.8
20260509040205 54 250 2.0 3.0 0.00 0.00 0.00 79 1022.8
20260509035205 55 244 2.0 6.0 0.00 0.00 0.00 78 1022.7
20260509034206 55 264 2.0 3.0 0.00 0.00 0.00 77 1022.7
20260509033706 55 269 3.0 6.0 0.00 0.00 0.00 77 1022.6
20260509033204 55 264 2.0 3.0 0.00 0.00 0.00 77 1022.6
20260509032704 55 253 2.0 5.0 0.00 0.00 0.00 76 1022.6
20260509031704 55 270 2.0 3.0 0.00 0.00 0.00 76 1022.5
20260509030706 55 273 2.0 3.0 0.00 0.00 0.00 77 1022.5
20260509030204 55 287 1.0 3.0 0.00 0.00 0.00 76 1022.5
20260509025705 55 278 2.0 3.0 0.00 0.00 0.00 76 1022.5
20260509025204 56 277 2.0 6.0 0.00 0.00 0.00 76 1022.5
20260509024204 56 274 3.0 6.0 0.00 0.00 0.00 75 1022.5
20260509023704 56 257 1.0 6.0 0.00 0.00 0.00 76 1022.3
20260509023205 56 264 3.0 8.0 0.00 0.00 0.00 75 1022.3
20260509022705 56 261 3.0 7.0 0.00 0.00 0.00 75 1022.3
20260509021703 56 291 3.0 6.0 0.00 0.00 0.00 75 1022.3
20260509021203 56 277 2.0 5.0 0.00 0.00 0.00 75 1022.3
20260509020704 56 282 2.0 3.0 0.00 0.00 0.00 74 1022.2
20260509020205 56 275 2.0 6.0 0.00 0.00 0.00 74 1022.3
20260509015706 56 264 2.0 3.0 0.00 0.00 0.00 74 1022.2
20260509015205 56 271 2.0 3.0 0.00 0.00 0.00 74 1022.2
20260509014704 56 279 2.0 3.0 0.00 0.00 0.00 74 1022.2
20260509014204 56 279 3.0 7.0 0.00 0.00 0.00 73 1022.2
20260509013706 56 285 3.0 9.0 0.00 0.00 0.00 73 1022.2
20260509013204 56 290 5.0 8.0 0.00 0.00 0.00 72 1022.2
20260509012704 56 278 4.0 8.0 0.00 0.00 0.00 72 1022.2
20260509012205 57 303 6.0 9.0 0.00 0.00 0.00 71 1022.1
20260509011704 57 298 6.0 9.0 0.00 0.00 0.00 70 1022.1
20260509011204 57 277 6.0 10.0 0.00 0.00 0.00 71 1022.1
20260509010704 57 296 5.0 10.0 0.00 0.00 0.00 71 1022.2
20260509004705 57 262 3.0 7.0 0.00 0.00 0.00 71 1022.2
20260509004205 57 242 4.0 7.0 0.00 0.00 0.00 71 1022.2
20260509003705 57 255 5.0 7.0 0.00 0.00 0.00 71 1022.2
20260509003204 57 260 3.0 7.0 0.00 0.00 0.00 72 1022.2
20260509002704 57 262 4.0 7.0 0.00 0.00 0.00 73 1022.2
20260509002204 57 285 2.0 7.0 0.00 0.00 0.00 73 1022.2
20260509001704 57 305 5.0 8.0 0.00 0.00 0.00 72 1022.2
20260509001205 57 287 5.0 8.0 0.00 0.00 0.00 71 1022.2
20260509000704 57 275 5.0 8.0 0.00 0.00 0.00 71 1022.2
20260509000204 57 258 5.0 7.0 0.00 0.00 0.00 71 1022.2
20260508235204 57 273 3.0 9.0 0.00 0.00 0.00 72 1022.2
20260508234704 57 285 5.0 9.0 0.00 0.00 0.00 72 1022.2
20260508234204 57 295 5.0 9.0 0.00 0.00 0.00 71 1022.2
20260508233704 57 301 4.0 6.0 0.00 0.00 0.00 71 1022.2
20260508233204 58 308 2.0 5.0 0.00 0.00 0.00 74 1022.1
20260508232704 58 311 3.0 3.0 0.00 0.00 0.00 72 1022.1
20260508231704 57 296 3.0 7.0 0.00 0.00 0.00 72 1022.1
20260508231203 58 289 2.0 3.0 0.00 0.00 0.00 72 1022.1
20260508230705 58 262 2.0 3.0 0.00 0.00 0.00 73 1022.1
20260508230205 57 317 1.0 3.0 0.00 0.00 0.00 73 1022.1
20260508225205 57 338 0.0 3.0 0.00 0.00 0.00 73 1022.1
20260508224704 57 321 1.0 3.0 0.00 0.00 0.00 73 1022.0
20260508224205 57 294 2.0 6.0 0.00 0.00 0.00 73 1022.0
20260508223705 57 254 3.0 8.0 0.00 0.00 0.00 72 1022.0
20260508223205 57 320 3.0 8.0 0.00 0.00 0.00 73 1022.0
20260508222703 57 121 1.0 2.0 0.00 0.00 0.00 73 1021.9
20260508221704 57 257 3.0 7.0 0.00 0.00 0.00 73 1022.0
20260508221204 57 210 5.0 6.0 0.00 0.00 0.00 72 1022.0
20260508220204 56 209 3.0 6.0 0.00 0.00 0.00 74 1022.1
20260508215703 56 286 3.0 8.0 0.00 0.00 0.00 74 1022.1
20260508215204 56 340 2.0 3.0 0.00 0.00 0.00 74 1022.1
20260508214704 56 280 3.0 8.0 0.00 0.00 0.00 75 1022.1
20260508214205 56 307 2.0 8.0 0.00 0.00 0.00 74 1022.1
20260508213705 56 245 3.0 7.0 0.00 0.00 0.00 75 1022.1
20260508213204 56 317 5.0 8.0 0.00 0.00 0.00 74 1022.1
20260508212204 56 293 3.0 7.0 0.00 0.00 0.00 76 1021.9
20260508211704 56 279 3.0 8.0 0.00 0.00 0.00 74 1021.9
20260508211204 56 281 3.0 8.0 0.00 0.00 0.00 76 1021.9
20260508205704 55 271 6.0 9.0 0.00 0.00 0.00 75 1021.8
20260508205205 55 272 3.0 8.0 0.00 0.00 0.00 76 1021.8
20260508204705 55 302 5.0 9.0 0.00 0.00 0.00 77 1021.8
20260508203705 55 250 5.0 9.0 0.00 0.00 0.00 77 1021.7
20260508201704 55 273 6.0 9.0 0.00 0.00 0.00 78 1021.6
20260508201204 54 278 5.0 8.0 0.00 0.00 0.00 78 1021.5
20260508200704 54 263 5.0 10.0 0.00 0.00 0.00 77 1021.5
20260508200203 54 291 4.0 9.0 0.00 0.00 0.00 79 1021.4
20260508195704 54 305 3.0 7.0 0.00 0.00 0.00 79 1021.3
20260508195205 54 287 4.0 8.0 0.00 0.00 0.00 78 1021.3
20260508194704 54 281 5.0 9.0 0.00 0.00 0.00 79 1021.4
20260508194203 54 278 6.0 10.0 0.00 0.00 0.00 79 1021.4
20260508193704 53 273 3.0 9.0 0.00 0.00 0.00 79 1021.3
20260508192703 53 252 6.0 10.0 0.00 0.00 0.00 81 1021.3
20260508192205 53 270 3.0 8.0 0.00 0.00 0.00 81 1021.3
20260508191703 53 265 3.0 9.0 0.00 0.00 0.00 81 1021.2
20260508191204 53 267 5.0 8.0 0.00 0.00 0.00 82 1021.2
20260508190705 53 278 5.0 10.0 0.00 0.00 0.00 81 1021.1
20260508190205 53 265 6.0 12.0 0.00 0.00 0.00 81 1020.9
20260508185704 53 285 6.0 10.0 0.00 0.00 0.00 81 1020.9
20260508185205 53 247 6.0 10.0 0.00 0.00 0.00 81 1020.9
20260508184704 53 266 4.0 8.0 0.00 0.00 0.00 81 1020.8
20260508183204 53 255 5.0 10.0 0.00 0.00 0.00 81 1020.7
20260508182703 53 263 6.0 10.0 0.00 0.00 0.00 82 1020.8
20260508182204 53 268 5.0 9.0 0.00 0.00 0.00 82 1020.8
20260508181704 53 275 5.0 8.0 0.00 0.00 0.00 82 1020.8
20260508181203 53 270 2.0 9.0 0.00 0.00 0.00 83 1020.8
20260508180705 52 267 6.0 10.0 0.00 0.00 0.00 83 1020.8
20260508180204 53 253 5.0 7.0 0.00 0.00 0.00 83 1020.6
20260508175204 52 228 3.0 9.0 0.00 0.00 0.00 83 1020.4
20260508174704 52 271 6.0 10.0 0.00 0.00 0.00 84 1020.4
20260508174204 52 276 3.0 7.0 0.00 0.00 0.00 84 1020.4
20260508173704 52 252 5.0 9.0 0.00 0.00 0.00 84 1020.3
20260508173205 52 273 4.0 9.0 0.00 0.00 0.00 85 1020.1
20260508172704 52 277 5.0 10.0 0.00 0.00 0.00 84 1020.1
20260508172205 52 260 4.0 10.0 0.00 0.00 0.00 84 1020.1
20260508171705 52 289 7.0 12.0 0.00 0.00 0.00 84 1020.1
20260508171205 52 260 6.0 12.0 0.00 0.00 0.00 84 1020.2
20260508165703 52 288 5.0 9.0 0.00 0.00 0.00 85 1020.1
20260508165204 52 246 2.0 12.0 0.00 0.00 0.00 85 1019.9
20260508164704 52 247 5.0 9.0 0.00 0.00 0.00 85 1019.7
20260508164205 52 279 6.0 12.0 0.00 0.00 0.00 85 1019.6
20260508163705 52 272 6.0 9.0 0.00 0.00 0.00 84 1019.6
20260508163203 52 281 5.0 10.0 0.00 0.00 0.00 85 1019.7
20260508161705 52 271 7.0 12.0 0.00 0.00 0.00 84 1019.1
20260508161205 52 243 7.0 13.0 0.00 0.00 0.00 84 1019.1
20260508160704 53 249 5.0 9.0 0.00 0.00 0.00 85 1019.1
20260508160203 53 256 4.0 7.0 0.00 0.00 0.00 86 1019.1
20260508155705 52 285 3.0 12.0 0.00 0.00 0.00 86 1019.1
20260508155204 52 288 7.0 12.0 0.00 0.00 0.00 86 1019.1
20260508154703 52 257 6.0 9.0 0.00 0.00 0.00 86 1019.0
20260508154204 52 277 3.0 8.0 0.00 0.00 0.00 87 1019.0
20260508153704 52 260 3.0 12.0 0.00 0.00 0.00 86 1018.9
20260508153203 52 255 4.0 7.0 0.00 0.00 0.00 87 1019.2
20260508152705 52 261 3.0 6.0 0.00 0.00 0.00 87 1019.1
20260508152205 52 244 3.0 7.0 0.00 0.00 0.00 87 1019.0
20260508151704 52 274 5.0 7.0 0.00 0.00 0.00 87 1019.0
20260508150705 52 228 3.0 7.0 0.00 0.00 0.00 88 1019.0
20260508150204 52 269 5.0 12.0 0.00 0.00 0.00 88 1019.0
20260508145704 52 257 6.0 10.0 0.00 0.00 0.00 88 1018.9
20260508145205 52 284 3.0 7.0 0.00 0.00 0.00 88 1018.9
20260508144703 51 261 6.0 8.0 0.00 0.00 0.00 88 1018.9
20260508144204 51 250 5.0 7.0 0.00 0.00 0.00 89 1018.8
20260508143704 51 256 3.0 7.0 0.00 0.00 0.00 89 1018.8
20260508143204 51 262 4.0 8.0 0.00 0.00 0.00 89 1018.7
20260508142705 51 271 4.0 7.0 0.00 0.00 0.00 89 1018.6
20260508141703 51 261 5.0 8.0 0.00 0.00 0.00 89 1018.5
20260508141204 51 263 6.0 10.0 0.00 0.00 0.00 89 1018.5
20260508140704 51 254 5.0 9.0 0.00 0.00 0.00 89 1018.4
20260508140203 51 252 6.0 12.0 0.00 0.00 0.00 90 1018.5
20260508135703 51 262 5.0 8.0 0.00 0.00 0.00 90 1018.4
20260508135205 51 238 3.0 10.0 0.00 0.00 0.00 90 1018.3
20260508134205 51 251 6.0 10.0 0.00 0.00 0.00 90 1018.2
20260508133705 51 259 6.0 9.0 0.00 0.00 0.00 91 1018.1
20260508133204 50 242 4.0 8.0 0.00 0.00 0.00 91 1018.1
20260508132705 50 253 3.0 6.0 0.00 0.00 0.00 91 1017.9
20260508132204 50 263 3.0 8.0 0.00 0.00 0.00 91 1017.9
20260508131704 50 264 4.0 8.0 0.00 0.00 0.00 91 1017.8
20260508131204 50 248 3.0 6.0 0.00 0.00 0.00 91 1017.7
20260508130705 50 244 5.0 9.0 0.00 0.00 0.00 91 1017.7
20260508130204 50 248 5.0 8.0 0.00 0.00 0.00 91 1017.7
20260508125704 50 262 4.0 8.0 0.00 0.00 0.00 91 1017.7
20260508124703 50 253 5.0 9.0 0.00 0.00 0.00 91 1017.7
20260508124203 50 251 3.0 8.0 0.00 0.00 0.00 91 1017.6
20260508123203 50 258 5.0 7.0 0.00 0.00 0.00 92 1017.6
20260508122703 50 250 6.0 8.0 0.00 0.00 0.00 92 1017.7
20260508122206 50 252 5.0 12.0 0.00 0.00 0.00 92 1017.6
20260508121704 50 253 5.0 8.0 0.00 0.00 0.00 92 1017.6
20260508121203 50 257 6.0 9.0 0.00 0.00 0.00 92 1017.6
20260508120706 50 257 4.0 12.0 0.00 0.00 0.00 92 1017.7
20260508120204 50 246 6.0 10.0 0.00 0.00 0.00 92 1017.7
20260508115705 50 253 6.0 10.0 0.00 0.00 0.00 92 1017.6
20260508115205 49 244 4.0 10.0 0.00 0.00 0.00 93 1017.5
20260508114706 49 257 6.0 10.0 0.00 0.00 0.00 93 1017.5
20260508114204 49 244 6.0 9.0 0.00 0.00 0.00 93 1017.5
20260508113204 49 258 5.0 12.0 0.00 0.00 0.00 94 1017.4
20260508112704 49 250 4.0 7.0 0.00 0.00 0.00 94 1017.6
20260508112204 49 267 5.0 8.0 0.00 0.00 0.00 94 1017.4
20260508111705 49 242 5.0 8.0 0.00 0.00 0.00 94 1017.4
20260508111204 48 251 3.0 6.0 0.00 0.00 0.00 94 1017.2
20260508110704 48 267 3.0 6.0 0.00 0.00 0.00 94 1017.3
20260508110204 48 247 4.0 7.0 0.00 0.00 0.00 95 1017.3
20260508105704 48 249 3.0 5.0 0.00 0.00 0.00 95 1017.2
20260508105204 48 247 2.0 5.0 0.00 0.00 0.00 95 1017.2
20260508104705 48 245 3.0 7.0 0.00 0.00 0.00 95 1017.1
20260508104206 48 238 3.0 5.0 0.00 0.00 0.00 95 1017.1
20260508103205 47 229 2.0 7.0 0.00 0.00 0.00 95 1017.1
20260508102705 47 224 2.0 3.0 0.00 0.00 0.00 95 1017.1
20260508101704 46 229 0.0 3.0 0.00 0.00 0.00 95 1017.1
20260508101203 46 240 2.0 3.0 0.00 0.00 0.00 95 1017.2
20260508100704 45 210 0.0 0.0 0.00 0.00 0.00 95 1017.1
20260508100204 45 210 0.0 0.0 0.00 0.00 0.00 95 1017.1
20260508095704 45 210 0.0 0.0 0.00 0.00 0.00 94 1016.9
20260508094704 46 210 0.0 0.0 0.00 0.00 0.00 94 1016.9
20260508094204 46 210 0.0 0.0 0.00 0.00 0.00 95 1016.9
20260508093705 46 210 0.0 0.0 0.00 0.00 0.00 95 1016.9
20260508093203 46 210 0.0 0.0 0.00 0.00 0.00 94 1016.9
20260508092703 46 210 0.0 0.0 0.00 0.00 0.00 94 1016.7
20260508092205 46 210 0.0 1.0 0.00 0.00 0.00 94 1016.7
20260508091203 46 210 0.0 0.0 0.00 0.00 0.00 94 1016.6
20260508090704 46 210 0.0 0.0 0.00 0.00 0.00 94 1016.7
20260508090204 46 210 0.0 1.0 0.00 0.00 0.00 94 1016.8
20260508085703 46 210 1.0 2.0 0.00 0.00 0.00 94 1016.8
20260508084705 46 210 0.0 1.0 0.00 0.00 0.00 94 1016.8
20260508083704 46 138 0.0 0.0 0.00 0.00 0.00 94 1016.7
20260508083203 46 138 0.0 0.0 0.00 0.00 0.00 94 1016.5
20260508082704 46 138 0.0 0.0 0.00 0.00 0.00 94 1016.5
20260508081704 46 138 0.0 0.0 0.00 0.00 0.00 94 1016.7
20260508080205 46 138 0.0 0.0 0.00 0.00 0.00 93 1016.7
20260508074704 46 138 0.0 1.0 0.00 0.00 0.00 94 1016.8
20260508074205 46 138 0.0 1.0 0.00 0.00 0.00 93 1016.7
20260508073706 46 136 0.0 0.0 0.00 0.00 0.00 94 1016.7
20260508073204 46 136 0.0 1.0 0.00 0.00 0.00 94 1016.6
20260508072705 46 190 0.0 1.0 0.00 0.00 0.00 94 1016.7
20260508072204 46 190 0.0 0.0 0.00 0.00 0.00 93 1016.9
20260508071704 46 190 0.0 1.0 0.00 0.00 0.00 93 1016.9
20260508071204 46 190 0.0 0.0 0.00 0.00 0.00 93 1016.9
20260508070706 46 190 0.0 0.0 0.00 0.00 0.00 92 1017.0
20260508065704 46 190 1.0 2.0 0.00 0.00 0.00 93 1017.0
20260508065204 46 190 0.0 0.0 0.00 0.00 0.00 93 1017.1
20260508064703 46 190 0.0 0.0 0.00 0.00 0.00 93 1017.1
20260508064207 46 190 0.0 0.0 0.00 0.00 0.00 92 1017.2
20260508063704 46 190 0.0 0.0 0.00 0.00 0.00 92 1017.3
20260508062704 46 190 2.0 3.0 0.00 0.00 0.00 92 1017.2
20260508061705 47 205 1.0 2.0 0.00 0.00 0.00 92 1017.1
20260508061205 47 205 0.0 1.0 0.00 0.00 0.00 91 1017.2
20260508060706 47 205 1.0 3.0 0.00 0.00 0.00 91 1017.3
20260508060204 48 220 1.0 2.0 0.00 0.00 0.00 91 1017.3
20260508055704 48 220 1.0 2.0 0.00 0.00 0.00 91 1017.3